GFSCGP_prec_cloud_078.txt.gz
Cloud_Cover
100 100 100 100 100 44 68 100 76 100 73 5 39 5 5 5 5 60 7 5 5 0 0 0 0 0 0 0 0 0 0 0 0 0 0 0 0 41 91 100 100 100 90 43
100 100 100 62 90 94 83 44 99 24 16 33 5 25 5 5 82 100 22 10 5 0 0 0 0 0 0 0 0 0 0 0 0 0 0 0 0 0 11 90 94 100 100 99
100 100 99 33 82 96 51 49 98 26 79 14 17 47 7 64 100 100 54 5 5 5 5 0 0 0 0 0 0 0 0 0 0 0 0 1 5 23 12 26 100 100 100 100
100 100 100 100 74 74 76 57 40 5 5 5 7 78 100 100 100 100 98 6 6 5 3 4 0 0 0 0 0 0 0 0 0 0 0 0 0 20 4 16 1 100 100 100
100 100 100 100 100 92 47 17 49 50 58 5 6 5 100 100 100 100 100 54 39 6 3 3 0 0 0 0 0 0 0 0 0 0 0 0 0 0 0 0 2 28 90 100
100 100 100 100 100 100 100 100 100 96 19 11 100 52 100 100 100 100 100 100 100 65 5 1 1 0 0 0 0 0 0 0 0 0 0 0 0 0 4 0 7 36 80 100
100 100 100 100 100 100 100 100 100 100 61 6 28 50 44 100 100 100 100 100 100 67 5 3 3 4 0 0 0 0 0 0 0 0 0 0 0 0 0 5 5 18 30 81
100 100 100 100 100 100 100 67 15 68 67 99 90 84 100 100 100 100 100 100 14 5 6 5 5 5 0 0 0 0 0 0 0 0 0 0 0 0 0 0 5 53 40 5
100 100 100 100 100 100 100 100 100 98 77 100 97 100 100 100 100 100 100 100 100 57 6 5 5 5 4 0 0 0 0 0 0 0 0 0 0 0 0 5 80 100 71 8
100 100 100 100 100 100 100 100 100 100 100 100 100 100 100 100 100 100 98 87 100 100 100 100 91 72 74 46 11 5 5 4 2 1 0 0 0 3 5 5 11 80 57 24
100 100 100 100 100 100 100 100 100 100 69 35 47 100 100 100 100 100 100 100 100 78 100 100 100 100 75 100 100 100 100 90 67 72 33 8 5 5 5 5 10 5 21 5
100 100 100 100 100 100 100 100 100 100 100 100 22 37 100 100 100 100 100 100 100 94 34 6 20 94 100 100 100 100 100 100 96 70 100 100 100 75 54 82 22 5 5 6
100 100 100 100 100 95 91 94 100 91 96 16 50 89 100 100 92 93 100 97 63 26 10 5 10 7 5 5 5 5 15 75 78 55 52 73 89 96 77 88 97 65 59 26
100 97 100 100 100 100 100 100 100 100 95 80 82 100 100 100 100 100 99 52 88 66 5 5 3 0 5 3 5 5 5 5 5 15 47 88 74 86 83 93 100 100 100 100
100 98 99 99 96 93 99 100 100 100 100 62 58 28 100 100 99 93 100 100 70 9 5 5 5 5 5 5 5 5 5 5 5 23 55 79 87 90 94 71 70 65 73 96
100 100 100 100 100 84 23 46 82 44 64 57 69 12 100 100 99 98 53 9 5 5 5 5 5 5 5 5 5 5 5 5 5 5 5 5 5 7 6 21 11 63 49 24
100 95 100 100 100 100 42 5 22 76 100 98 73 8 73 100 96 98 100 100 78 31 5 4 0 0 0 3 4 4 4 1 0 0 1 1 2 4 21 4 5 5 47 86
100 100 100 100 100 89 5 5 52 100 100 100 56 5 14 28 12 5 6 27 60 12 10 5 1 2 4 0 0 1 1 2 2 3 1 0 0 0 0 0 4 40 84 63
100 100 100 100 100 33 5 5 82 93 70 51 5 20 3 2 5 5 5 3 5 5 5 5 0 0 2 2 4 5 5 5 5 5 5 5 5 4 4 11 8 15 45 74
100 100 87 86 28 5 99 87 100 100 25 99 70 9 5 4 1 32 5 5 5 5 5 5 5 8 5 5 5 42 32 36 9 78 100 94 63 21 46 35 40 88 65 60
100 100 100 100 99 7 5 5 12 64 6 7 8 22 27 50 23 2 2 0 4 62 62 18 4 2 5 5 5 5 5 5 32 100 63 89 100 57 46 55 100 100 100 100
100 100 100 100 100 50 23 40 42 14 5 5 5 28 5 4 4 2 2 4 3 0 0 4 5 5 5 5 5 5 17 20 56 85 100 100 100 98 100 100 100 100 100 100
100 100 100 100 96 10 5 52 96 76 41 46 15 23 80 44 44 33 96 99 96 99 44 5 5 5 5 5 6 10 9 100 100 100 97 100 100 62 38 98 100 100 100 100
100 100 100 100 100 100 100 100 100 100 100 99 100 100 97 74 87 36 65 4 0 4 3 5 5 5 5 5 7 6 26 95 100 96 100 100 100 100 100 63 98 100 100 100
100 100 100 100 100 100 100 100 100 100 100 100 100 86 87 80 92 48 5 5 3 5 5 5 5 5 5 5 5 42 5 72 100 99 82 100 100 100 95 76 98 20 62 90
100 100 100 99 100 100 100 100 100 100 88 79 88 71 36 4 2 1 0 1 5 5 5 12 10 9 5 5 5 5 5 88 100 100 100 100 100 100 100 100 96 90 100 90

GFSCGP_prec_cloud_081.txt.gz
Cloud_Cover
100 100 100 100 100 100 48 69 19 32 93 100 100 100 70 99 5 5 0 0 0 0 0 5 0 0 0 0 0 0 0 0 0 0 4 37 42 88 100 65 51 100 69 87
100 100 100 100 78 100 98 86 87 57 19 72 91 100 100 14 5 5 4 0 0 0 1 5 5 0 0 0 0 0 0 0 0 0 0 0 0 31 20 86 98 100 100 100
100 100 100 100 100 100 100 100 98 100 60 100 93 100 100 51 58 5 5 0 0 3 0 1 5 4 0 0 0 0 0 0 0 0 0 8 18 30 66 100 100 100 100 100
97 90 54 76 87 61 71 50 98 95 100 76 58 98 100 6 50 12 5 5 5 5 5 0 5 5 5 0 0 0 0 0 0 0 0 0 0 11 6 18 94 100 100 100
100 100 100 100 100 100 100 88 16 6 5 10 28 16 100 70 8 5 34 6 5 5 5 5 4 5 5 1 0 0 0 0 0 0 0 0 0 0 0 0 18 41 88 100
100 97 89 99 99 70 77 89 26 5 7 8 64 10 100 100 57 22 28 66 14 5 5 5 4 4 5 5 0 0 0 0 0 0 0 0 0 1 21 11 20 44 97 100
100 100 98 100 100 100 100 100 100 100 77 7 35 74 76 100 100 100 73 15 18 5 5 5 5 5 5 5 1 0 0 4 2 0 0 0 0 0 0 0 0 29 76 100
100 100 100 100 100 100 100 100 86 8 11 69 58 32 93 57 100 100 100 100 14 5 8 33 5 5 2 2 1 5 2 0 0 5 4 3 4 5 5 0 0 0 0 4
100 100 100 100 100 100 100 98 100 98 15 18 11 30 98 100 92 23 96 100 100 99 8 5 5 5 5 5 2 5 4 5 5 5 5 6 6 5 5 2 0 0 0 0
100 100 100 100 100 95 91 94 63 68 100 81 99 100 100 100 100 83 72 100 100 100 100 99 64 24 5 4 5 5 5 5 11 21 62 66 26 5 4 3 5 5 5 5
100 100 100 100 100 100 100 100 100 100 100 100 97 100 100 100 90 100 100 100 100 100 100 100 100 100 100 100 100 79 74 46 66 74 32 32 6 5 12 16 5 5 5 5
100 100 100 100 100 100 100 100 100 100 100 100 100 100 100 100 100 100 100 100 100 100 100 100 100 100 100 100 100 100 100 100 100 100 100 100 100 100 100 100 100 100 100 100
100 100 100 100 100 100 100 100 100 100 100 100 100 100 100 100 100 100 100 100 100 96 84 100 99 100 100 100 100 100 100 100 100 100 100 100 100 100 100 100 100 100 100 100
100 100 100 100 100 100 100 100 100 100 100 66 100 100 100 100 100 100 100 100 100 99 67 29 11 56 100 100 100 100 100 100 100 100 100 100 100 100 100 100 100 100 100 100
100 100 100 100 100 100 100 100 100 100 100 91 100 100 100 100 100 92 27 5 5 28 89 98 100 85 64 71 72 82 71 95 63 64 57 63 78 84 37 59 71 65 31 5
100 100 100 100 100 100 100 100 100 100 100 100 100 100 100 100 100 100 100 100 100 100 99 82 80 74 94 96 100 100 82 68 18 57 98 45 59 61 46 17 44 28 19 86
100 100 100 100 100 100 87 96 100 100 100 100 100 100 100 100 100 100 79 64 80 82 75 47 6 5 5 5 21 70 82 96 48 16 5 5 5 5 5 5 5 41 32 4
100 100 100 100 100 92 58 63 77 65 90 86 68 100 96 81 91 100 97 15 8 5 5 5 5 5 5 5 5 5 5 5 5 5 5 5 3 3 0 2 1 3 3 6
100 100 100 100 86 44 41 8 91 100 94 98 86 70 57 74 88 100 80 11 5 6 18 6 5 8 9 5 5 4 5 5 5 4 5 5 5 4 5 17 56 38 32 21
100 100 100 99 72 13 5 56 7 100 46 96 100 100 12 5 10 79 5 8 5 5 5 6 18 12 5 4 3 5 5 5 5 5 5 5 5 6 45 100 87 84 91 100
100 100 100 100 94 5 5 34 100 100 63 100 100 100 89 33 8 26 65 35 15 5 11 22 8 7 5 5 5 5 5 5 5 5 5 5 5 7 12 53 41 43 76 100
100 100 100 100 100 50 25 100 100 98 20 5 5 5 31 17 5 5 5 5 5 5 5 5 5 5 5 5 5 5 5 5 60 93 28 5 14 18 33 34 33 57 87 100
100 100 100 100 100 31 5 7 46 98 97 75 13 5 5 56 56 16 5 5 5 4 5 5 5 5 5 5 5 5 5 5 75 100 100 43 100 51 28 52 81 100 100 100
100 100 100 100 95 100 100 99 91 81 100 100 100 66 27 6 5 6 14 11 5 5 5 16 16 27 54 39 17 12 5 5 33 96 100 100 100 100 100 73 29 62 72 95
100 100 100 100 100 100 100 100 98 52 19 21 46 94 100 99 99 100 79 87 40 77 100 100 100 100 100 90 29 33 5 47 73 93 100 100 100 100 100 100 99 69 17 43
100 100 100 100 100 100 100 100 100 100 100 100 100 100 96 97 100 100 100 100 100 85 33 20 34 41 6 7 5 5 26 56 78 100 95 99 100 100 100 100 77 97 98 96

GFSCGP_prec_cloud_084.txt.gz
Cloud_Cover
100 93 100 100 100 73 100 100 100 100 100 100 82 66 5 5 5 5 95 99 5 5 0 0 0 0 0 0 0 0 0 0 31 78 99 100 100 100 100 98 54 0 0 0
100 100 100 100 100 100 100 100 100 100 100 100 100 79 7 20 5 5 5 10 5 2 0 0 0 0 0 0 0 0 0 0 12 23 28 39 60 88 94 100 100 88 18 10
100 100 100 100 100 89 49 92 99 27 47 33 40 74 25 72 78 4 5 6 5 4 0 0 0 0 0 0 0 0 0 0 0 0 17 28 35 56 90 99 100 100 87 59
100 100 100 100 95 99 95 50 92 15 100 100 56 100 78 16 5 12 5 6 0 0 0 0 0 0 0 0 0 0 1 0 0 0 0 1 6 45 32 46 99 100 100 100
100 100 100 100 100 100 100 99 52 97 88 98 57 6 100 15 5 5 5 5 5 2 0 0 0 0 0 0 0 0 3 5 0 0 0 6 1 0 0 2 16 83 100 100
100 100 97 76 100 100 100 93 61 44 5 5 45 5 100 93 41 14 5 4 5 5 5 5 5 5 5 5 5 5 5 5 5 3 0 2 4 1 18 22 56 100 100 100
100 100 100 100 100 98 100 100 100 100 100 5 7 5 19 72 77 6 5 5 5 5 10 5 5 5 5 5 5 5 5 5 7 8 41 36 25 23 10 7 22 58 99 100
100 100 100 100 100 100 100 100 99 100 46 5 5 10 67 34 55 44 87 78 21 5 5 5 5 6 5 5 5 5 6 46 13 5 5 10 39 75 73 67 65 78 74 49
100 100 100 100 100 100 100 100 100 94 33 5 5 5 11 5 87 65 81 100 100 100 95 13 5 5 5 5 5 5 5 5 5 5 47 34 15 20 12 5 28 28 60 58
100 100 100 100 100 100 100 98 90 91 58 56 9 17 19 45 25 15 5 22 96 100 100 100 100 94 42 7 5 5 5 41 82 78 75 86 72 55 72 80 88 97 86 85
100 100 100 100 100 100 100 100 100 100 97 82 54 97 100 98 100 52 82 86 85 100 100 100 100 100 100 100 100 100 94 34 5 7 5 5 5 5 5 5 6 5 5 5
100 100 100 100 100 100 100 100 100 95 79 96 100 100 100 100 100 100 100 100 100 100 100 100 100 100 100 100 100 100 100 100 100 100 100 97 95 80 71 94 96 95 98 99
100 100 93 86 86 60 67 99 100 100 100 100 100 100 100 100 100 100 100 100 100 100 100 100 75 90 100 100 100 100 100 100 100 100 100 100 100 100 100 100 100 100 100 100
100 100 100 100 100 100 100 100 100 100 100 100 100 100 100 100 100 100 100 100 100 100 100 100 100 82 100 100 100 100 100 100 100 100 100 100 100 100 100 100 100 100 100 100
100 100 100 100 100 100 100 100 100 100 100 100 98 100 100 100 100 100 100 99 98 85 65 100 100 100 100 99 99 100 100 98 100 100 100 100 100 100 100 100 100 100 100 100
100 100 100 100 100 100 100 100 100 100 100 100 100 100 100 100 100 100 100 100 100 100 100 100 100 100 100 100 100 100 100 100 100 96 100 100 100 100 100 100 100 98 37 11
100 100 100 100 100 100 100 100 100 100 100 100 100 100 100 100 100 100 100 100 100 100 94 98 100 96 100 100 100 100 100 100 100 100 99 97 90 96 88 72 69 48 52 70
100 100 100 100 100 100 100 100 100 100 100 100 100 100 100 100 100 100 100 100 100 100 100 100 100 100 100 100 96 88 87 38 38 23 11 5 5 57 60 28 25 39 36 16
100 100 100 100 100 100 100 100 100 100 100 100 100 100 100 100 100 100 100 100 100 100 88 67 35 17 6 36 46 30 16 6 5 19 12 59 81 89 65 6 77 100 47 5
100 100 100 100 98 100 100 100 100 100 100 100 100 100 100 100 100 100 98 100 96 78 72 70 42 5 9 33 71 6 5 5 5 5 5 5 10 5 8 6 84 54 50 33
100 100 100 99 100 33 56 98 99 100 100 100 100 100 100 93 80 53 6 38 17 5 5 5 5 5 10 5 5 5 5 5 5 14 87 83 21 13 17 48 40 30 42 53
100 100 100 100 100 32 56 100 100 100 99 48 52 100 100 100 81 63 43 19 28 8 31 83 94 79 9 9 5 30 5 5 5 5 60 100 96 100 100 100 57 24 51 72
100 100 100 100 98 68 62 5 62 99 86 100 100 100 100 94 88 99 99 100 100 97 100 94 96 20 6 5 5 5 5 5 5 5 5 87 100 100 100 100 100 99 56 65
100 100 100 100 99 64 63 91 67 91 100 100 99 48 91 100 98 98 68 44 22 12 5 5 5 5 5 5 5 5 5 5 69 34 5 5 48 100 100 100 100 100 87 71
100 100 100 100 100 100 100 100 100 100 100 62 46 48 65 40 95 76 99 100 71 20 6 5 10 5 5 5 5 16 11 58 53 94 31 5 12 56 80 100 100 100 74 94
31 37 100 100 100 100 100 71 73 84 88 87 84 96 64 20 40 86 96 73 80 73 73 55 22 69 94 100 100 100 99 62 72 66 54 53 74 97 100 99 98 73 99 100

GFSCGP_prec_cloud_087.txt.gz
Cloud_Cover
91 100 100 100 100 100 100 100 100 86 100 100 100 100 8 98 79 38 4 0 0 5 5 5 2 0 0 0 0 0 1 28 96 100 100 100 100 100 100 100 91 5 1 5
100 100 100 100 99 80 15 93 100 100 100 41 100 100 100 99 96 38 68 100 5 3 4 5 5 0 0 0 0 0 0 5 48 68 98 100 100 100 100 100 100 96 20 5
100 100 100 100 100 99 96 100 100 100 50 100 93 100 95 43 100 100 26 3 5 2 1 2 0 0 0 0 0 0 0 0 3 28 98 100 100 100 100 100 100 100 99 82
100 100 100 100 92 100 100 100 100 34 99 98 51 68 100 53 30 84 12 5 0 1 2 0 0 0 0 0 0 0 0 0 0 18 52 58 94 100 100 100 100 100 100 100
100 100 100 100 100 100 100 100 90 100 81 55 100 98 100 11 55 17 5 5 4 0 0 3 5 5 5 4 0 0 0 5 3 0 41 56 69 59 43 50 35 51 97 100
100 100 100 100 100 93 100 91 83 86 56 76 30 25 100 32 5 35 16 2 2 5 5 5 5 5 5 5 5 5 5 5 6 5 2 45 44 34 39 35 48 65 96 100
100 100 100 100 100 84 100 100 100 98 55 75 92 28 8 5 5 5 5 5 4 5 5 5 5 5 5 5 5 5 5 5 5 7 91 100 100 100 100 100 100 100 100 100
100 100 100 100 100 100 100 100 100 100 49 5 32 7 11 42 13 21 66 5 5 5 5 5 5 5 5 5 5 6 5 5 5 11 5 7 16 78 99 100 100 92 100 100
100 100 100 100 100 100 100 100 100 100 43 28 8 8 39 11 54 52 59 46 42 44 11 5 1 2 5 5 5 7 5 5 5 6 5 5 5 5 5 5 5 5 5 5
100 100 100 100 100 100 100 100 100 50 74 26 60 5 65 48 32 73 38 30 92 100 100 100 84 60 11 4 2 0 0 1 4 5 5 5 5 5 4 2 5 5 5 5
100 100 100 100 100 100 100 100 100 100 74 5 5 6 15 24 28 72 83 63 25 83 100 100 100 100 99 92 62 23 6 7 11 5 5 5 5 5 5 5 5 5 5 5
100 100 100 100 100 100 100 100 100 100 98 100 79 63 32 95 81 79 100 100 100 100 98 62 100 100 100 100 100 100 100 100 100 100 99 100 100 99 78 77 83 79 97 92
100 82 92 94 46 76 41 96 100 98 100 100 100 69 54 82 100 100 100 98 78 59 45 76 74 100 89 96 99 100 100 100 100 100 100 100 100 100 100 100 100 100 100 100
100 100 100 100 100 100 82 100 100 100 100 84 88 91 12 32 45 95 97 98 100 100 100 100 100 96 91 77 66 94 100 100 100 100 100 100 100 100 100 100 100 100 100 100
100 100 100 100 95 100 100 100 100 100 100 100 99 100 100 94 100 100 100 100 100 96 85 89 97 96 98 100 94 58 19 64 97 81 57 79 70 61 84 100 100 100 100 100
100 100 100 100 88 100 100 100 100 100 100 100 100 100 100 100 100 100 100 98 97 96 100 100 92 86 88 96 100 80 88 100 100 91 80 85 100 100 100 100 100 100 100 100
100 100 100 100 100 100 100 100 100 100 100 100 100 100 100 100 100 100 100 99 100 100 100 100 100 78 97 100 96 77 60 43 20 48 96 32 39 67 58 90 98 24 48 29
100 100 100 100 100 100 100 100 100 100 100 100 100 100 100 100 100 100 100 100 97 83 97 100 100 100 100 96 85 98 100 100 100 100 97 100 99 53 17 18 26 5 30 60
100 100 100 100 100 100 100 100 100 100 100 100 100 100 100 100 100 100 100 100 100 100 100 100 100 100 100 100 100 100 100 100 100 100 73 8 5 5 5 5 5 5 34 64
100 100 100 100 100 100 100 100 100 100 100 100 100 100 100 100 100 100 100 100 100 100 100 100 100 100 100 93 64 90 97 34 40 5 5 33 56 27 19 26 64 61 22 34
100 100 100 100 100 98 100 100 100 100 100 100 100 100 100 100 100 100 100 100 100 100 100 100 100 100 100 100 100 96 47 42 18 7 5 5 91 100 100 100 100 100 96 68
100 100 100 100 97 42 82 95 100 100 100 100 100 100 100 100 100 100 100 100 100 100 100 100 100 100 99 54 29 59 55 12 30 17 8 5 5 47 95 100 100 100 100 100
100 100 100 100 96 99 100 100 85 100 100 92 96 100 100 100 100 100 100 100 100 100 95 35 17 5 5 5 5 5 5 5 5 5 5 5 5 5 5 28 50 100 100 100
100 100 100 100 100 89 92 100 100 100 100 100 100 100 100 100 100 98 99 96 90 80 93 41 21 21 24 5 5 5 5 5 72 50 5 5 5 5 5 26 78 66 100 100
100 100 100 100 100 100 100 100 100 100 100 99 100 100 100 100 100 100 100 100 100 100 99 68 5 34 20 25 14 5 5 44 34 10 5 5 5 5 5 30 100 88 87 99
100 100 100 100 100 100 100 100 100 100 100 100 100 100 100 100 100 100 100 100 70 45 47 60 67 70 31 60 42 5 22 6 53 16 77 96 30 42 68 97 99 82 55 100

GFSCGP_prec_cloud_093.txt.gz
Cloud_Cover
100 100 100 100 100 100 100 100 100 100 100 100 100 100 100 24 100 100 100 100 10 6 74 100 34 1 5 10 5 0 0 0 66 100 100 100 100 100 100 100 100 100 100 100
100 100 100 100 100 100 100 100 97 71 56 100 100 66 100 100 100 100 94 98 100 100 100 100 100 100 100 100 2 0 0 0 13 100 100 100 100 100 96 100 100 100 100 100
100 100 100 100 100 100 100 100 100 77 100 99 100 100 100 97 98 50 100 45 65 100 95 100 100 97 100 47 4 0 0 0 2 42 100 100 100 100 100 100 100 100 100 100
100 100 100 100 100 100 100 100 100 100 96 62 100 100 100 83 97 91 5 98 100 6 5 6 5 88 5 4 1 4 0 0 0 1 21 98 100 100 100 100 100 100 100 100
99 100 100 100 100 100 100 100 100 100 100 100 30 12 5 99 77 67 70 84 66 92 7 6 5 5 5 5 5 5 0 0 0 0 0 55 100 100 100 100 100 100 100 100
100 100 100 100 100 100 100 100 100 100 81 52 21 89 47 100 100 100 44 60 75 100 88 77 75 71 100 79 9 5 5 4 0 0 0 14 94 100 100 100 100 91 59 100
100 100 100 100 100 94 100 100 100 100 83 91 100 83 69 100 96 100 100 86 84 16 53 9 8 7 11 31 5 5 5 6 26 71 65 61 98 100 100 99 100 100 98 96
100 100 100 100 66 100 100 100 100 100 100 100 100 99 73 100 98 100 100 100 100 100 100 95 6 6 5 5 5 5 51 5 5 0 2 13 26 42 36 1 9 5 1 0
100 100 100 100 100 100 100 100 96 100 100 100 100 100 100 100 100 100 100 100 100 100 100 98 100 62 64 7 5 7 7 5 5 0 0 0 3 2 0 2 4 0 5 5
100 100 100 100 100 100 100 100 100 100 100 57 99 84 100 100 100 100 100 100 100 97 100 100 99 64 18 9 40 6 5 5 5 5 5 5 5 5 5 5 5 5 5 5
100 100 100 100 100 100 100 100 100 100 100 61 94 33 69 100 100 98 100 100 100 100 100 100 100 81 28 16 22 5 5 5 5 5 5 5 5 5 5 5 5 5 11 5
100 100 100 100 100 100 100 100 100 100 100 88 88 100 100 100 100 100 100 100 100 100 100 100 100 52 6 38 5 5 21 51 18 5 5 74 80 67 32 51 67 48 61 95
100 100 100 100 100 100 52 72 97 100 46 6 40 17 96 100 100 100 100 100 100 100 99 100 100 100 100 100 100 90 100 100 97 85 83 100 93 100 90 99 100 100 99 74
100 100 100 100 100 100 100 100 100 100 100 97 96 99 100 100 100 100 100 100 81 54 72 100 100 100 100 100 100 100 100 100 100 100 100 100 100 100 100 100 100 100 100 93
100 100 100 100 100 100 100 100 99 100 41 100 11 100 100 95 94 100 100 100 100 100 100 100 100 100 77 74 100 100 100 100 100 100 100 100 100 100 100 96 99 98 78 63
100 100 100 100 100 100 100 100 100 100 100 100 100 100 100 100 100 100 100 100 100 100 100 97 100 100 100 100 100 100 100 100 100 100 93 79 84 100 100 100 73 23 53 84
100 100 100 100 100 100 100 100 100 100 100 100 100 100 100 100 100 100 100 100 100 100 100 100 100 100 100 100 100 100 100 100 98 95 100 99 94 32 29 32 22 60 86 86
100 100 100 100 100 96 94 100 100 100 100 100 100 100 100 100 100 100 100 96 100 100 100 100 100 100 100 100 100 100 100 100 100 100 85 47 42 40 6 57 89 88 97 100
97 100 100 100 100 84 100 100 100 100 100 100 100 100 100 100 100 100 100 100 100 100 100 100 100 100 100 100 100 100 100 100 76 82 57 26 10 15 72 98 74 90 86 87
100 100 100 100 100 63 100 100 100 100 100 100 100 100 100 100 100 100 100 100 100 100 100 100 100 100 100 100 100 100 100 100 100 100 99 70 52 73 77 100 98 94 100 96
100 100 100 100 100 100 100 100 100 100 100 100 100 100 100 100 100 100 100 100 100 100 100 100 100 100 100 100 100 100 100 100 81 91 100 100 100 100 89 38 89 90 92 100
100 100 100 100 100 100 100 100 100 100 100 100 100 100 100 100 100 100 100 100 100 100 100 100 100 100 100 100 100 100 100 100 100 100 100 82 42 18 31 87 62 30 24 32
100 100 100 100 100 100 100 100 100 100 100 100 100 100 100 100 100 100 100 100 100 100 100 100 100 100 100 100 100 100 100 100 99 100 100 100 71 29 6 5 10 24 5 14
100 100 100 100 100 100 100 100 100 100 100 100 100 100 100 100 100 100 100 100 100 100 100 100 100 100 100 96 79 45 13 37 7 5 5 11 21 5 18 42 5 5 6 15
100 100 100 100 100 100 100 100 100 100 100 100 100 100 100 100 100 100 100 100 100 100 100 100 100 89 70 66 98 71 24 15 5 30 64 69 47 41 12 14 26 12 5 40
50 100 100 100 100 100 100 100 100 100 100 98 90 83 100 100 100 100 100 100 100 100 100 100 100 92 87 91 100 100 100 95 94 82 69 81 89 100 33 7 5 5 5 54

GFSCGP_prec_cloud_096.txt.gz
Cloud_Cover
100 100 61 100 100 99 100 100 100 100 100 100 100 73 17 84 100 99 100 100 100 100 90 99 4 94 100 100 100 100 49 31 0 64 100 100 100 100 100 100 100 100 100 100
100 100 100 100 100 100 100 86 100 21 100 83 42 11 7 85 97 66 100 75 82 100 96 100 100 100 80 79 100 46 46 97 0 60 100 100 100 100 100 100 100 100 100 100
100 100 100 100 100 100 100 100 100 100 100 100 100 100 100 100 100 100 100 100 100 100 100 100 100 100 100 100 100 86 26 2 1 14 99 100 100 100 100 100 100 100 100 100
100 100 100 100 100 100 100 100 100 100 100 100 100 100 100 60 100 100 100 100 100 100 100 31 80 55 87 6 5 24 9 4 0 19 51 87 100 100 100 100 100 100 100 100
100 100 100 100 100 100 97 100 100 100 100 100 100 98 80 62 100 75 100 100 100 100 92 100 100 64 18 99 27 5 5 8 5 12 37 98 100 100 100 100 100 100 100 100
100 100 100 100 100 100 100 100 100 100 100 100 100 100 96 100 100 34 100 100 100 100 100 84 63 35 70 7 16 57 8 73 4 4 20 65 80 100 100 100 100 100 100 100
100 100 100 100 100 100 100 100 100 100 100 100 100 100 100 100 100 100 64 100 63 95 82 96 100 99 17 9 68 76 37 8 5 5 5 8 43 100 100 100 100 100 92 99
100 100 100 100 100 100 100 100 27 100 65 100 99 6 98 99 100 100 100 100 98 90 94 100 100 77 79 100 100 100 34 5 5 14 70 97 100 96 16 18 9 8 5 5
100 100 100 100 100 100 100 100 70 42 68 49 7 91 100 100 100 100 100 88 100 68 98 96 68 100 100 100 100 100 100 100 96 76 8 5 5 5 5 5 5 5 5 5
100 100 100 100 100 100 100 100 100 100 93 38 5 33 100 100 100 100 100 100 100 100 100 100 100 100 100 100 100 100 100 100 100 100 45 46 5 42 30 35 8 17 65 11
100 100 100 100 100 100 100 100 100 100 77 5 8 10 85 100 100 100 100 100 100 100 100 100 100 99 85 100 100 100 100 100 100 100 69 90 94 100 94 87 66 82 98 98
100 100 100 100 100 100 100 100 100 100 94 26 95 35 97 100 100 100 100 100 100 100 100 100 100 100 100 100 100 100 100 100 72 98 100 100 100 97 93 100 81 97 99 99
100 100 100 100 100 100 100 100 100 100 100 100 82 85 100 100 100 100 100 100 100 100 100 100 100 100 100 100 100 100 100 100 100 100 100 100 99 66 66 90 98 100 99 100
100 100 100 100 100 100 100 100 100 100 100 100 100 100 100 100 100 100 100 100 100 100 100 100 100 100 100 100 100 86 100 91 100 100 100 100 100 100 100 100 90 96 100 100
100 100 100 100 100 100 100 100 100 100 100 100 99 100 100 100 100 100 100 100 100 100 100 100 100 100 90 88 100 100 100 100 100 100 100 96 100 100 100 100 100 99 100 100
100 100 100 100 100 100 100 100 100 100 100 81 68 96 100 100 100 100 100 100 100 100 100 100 100 92 90 100 100 100 100 100 100 100 100 100 100 100 100 100 100 100 96 87
100 100 100 100 100 100 100 100 100 100 100 100 100 100 100 100 100 100 100 100 100 100 100 100 100 100 100 100 100 100 100 100 100 100 100 100 100 98 100 87 46 62 65 52
100 100 100 100 100 100 100 100 100 100 100 100 100 100 100 100 100 100 100 100 100 100 100 100 100 100 100 100 100 100 100 100 100 100 100 87 100 92 64 10 79 72 87 88
100 100 100 100 100 100 48 100 100 100 100 100 100 100 100 100 100 100 100 100 100 100 100 100 100 100 100 100 100 100 100 100 100 100 100 97 85 60 67 95 99 86 94 44
100 100 100 100 100 95 88 96 100 100 99 100 100 100 100 100 100 100 100 100 100 100 100 100 100 100 100 100 100 100 100 100 100 100 100 100 99 100 82 92 98 37 10 7
100 100 100 100 100 99 100 100 100 100 100 100 100 100 100 100 100 100 100 100 100 100 100 100 100 100 100 100 100 100 100 100 100 100 100 100 100 100 66 68 36 32 74 55
100 100 100 100 100 97 100 100 100 100 100 100 100 100 100 100 100 100 100 100 100 100 100 100 100 100 100 100 100 100 100 100 100 100 100 100 95 32 37 88 76 43 44 41
100 100 100 100 100 100 100 100 100 100 100 100 100 100 100 100 100 100 100 100 100 100 100 100 100 100 100 100 100 100 100 99 100 100 100 87 48 42 57 71 63 66 45 60
100 100 100 100 100 100 100 100 100 100 100 100 100 100 100 100 100 100 100 100 100 100 100 100 100 100 100 100 100 100 100 100 100 100 99 74 57 42 32 47 32 57 64 52
100 100 100 100 100 100 100 100 100 100 100 100 100 100 100 100 100 100 100 100 100 100 100 100 100 100 100 100 100 100 100 100 100 100 100 100 100 50 5 14 12 16 5 30
98 100 100 100 100 100 100 100 100 100 100 100 100 100 100 100 100 100 100 100 100 100 100 100 100 100 100 100 100 100 100 100 100 100 100 98 88 65 35 11 6 5 5 5

GFSCGP_prec_cloud_102.txt.gz
Cloud_Cover
100 100 100 100 100 100 100 100 100 100 100 6 86 89 100 100 90 100 100 100 100 100 100 99 46 62 100 100 100 88 100 100 12 5 64 95 100 100 100 100 100 100 100 100
100 100 100 100 100 100 100 100 100 100 47 55 13 64 100 100 100 100 100 100 100 100 73 30 100 100 100 100 100 100 100 100 100 100 100 100 97 100 100 100 100 100 100 100
100 100 100 100 100 100 99 100 100 100 100 97 58 34 100 100 100 100 100 100 100 100 100 100 100 100 65 82 100 100 52 99 100 100 100 100 100 100 100 100 100 100 100 100
100 100 100 100 100 100 100 100 100 100 57 78 81 100 100 100 99 100 97 100 100 100 100 100 100 100 100 100 100 100 100 100 100 100 100 100 100 100 100 100 100 100 100 100
100 100 100 100 100 100 100 100 100 100 100 100 50 58 98 100 100 100 100 100 100 100 100 100 100 100 100 100 100 100 100 100 100 100 99 100 100 100 100 100 100 100 100 100
100 100 100 100 100 100 100 100 100 100 100 50 22 20 58 100 100 100 100 100 100 100 100 100 100 100 100 100 100 100 100 100 100 97 94 100 100 100 100 100 100 100 100 100
100 100 100 100 100 100 100 100 100 97 34 17 6 5 100 100 100 100 100 100 100 100 100 100 100 100 100 100 100 100 100 100 100 100 99 100 100 100 100 100 100 100 100 100
100 100 100 100 100 100 100 100 100 93 6 60 5 8 100 100 100 100 100 100 100 100 100 100 100 100 100 100 100 100 51 100 100 100 76 100 100 100 100 100 100 100 100 100
100 100 100 100 100 100 100 100 100 100 100 100 100 55 97 100 100 100 100 100 100 100 100 100 100 100 100 100 100 100 100 100 56 71 90 100 100 100 79 100 100 100 98 64
100 100 100 100 100 100 100 100 100 100 100 67 6 17 35 100 100 100 100 100 100 100 99 100 100 96 100 100 100 100 100 100 80 92 60 54 100 100 100 100 100 100 79 15
100 100 100 100 100 100 100 100 43 100 100 23 43 100 100 100 100 100 100 100 100 100 100 81 30 82 99 98 100 100 100 100 100 100 100 100 77 100 100 100 100 93 92 90
100 100 100 100 100 100 100 100 100 100 66 100 97 99 100 100 100 100 100 100 94 78 21 27 42 71 82 99 96 100 100 100 100 100 100 100 100 100 100 100 100 100 100 59
100 100 100 100 100 100 100 100 100 100 90 100 96 61 100 100 100 100 100 100 100 100 75 48 46 74 78 90 93 100 100 100 100 100 100 100 100 99 100 100 100 100 52 5
100 100 100 100 100 100 100 100 100 100 100 100 100 100 100 100 100 100 100 100 100 85 96 100 100 100 100 100 100 100 100 100 100 100 100 18 15 98 100 100 96 79 94 14
100 100 100 100 100 100 100 100 100 100 100 96 95 100 100 100 100 100 100 100 100 100 100 100 100 100 100 100 100 100 100 100 100 91 94 99 100 100 100 99 84 22 51 58
100 55 100 100 100 100 100 100 100 100 100 100 100 100 100 100 100 100 100 100 100 100 100 100 100 100 100 100 100 100 100 100 98 100 100 100 100 98 53 55 99 68 76 79
100 89 100 100 100 100 100 100 100 100 100 100 100 100 100 100 100 100 100 100 100 100 100 100 100 100 100 100 100 100 98 100 100 100 71 60 81 100 100 98 100 100 100 100
96 100 100 100 100 100 100 100 100 100 100 100 100 100 100 100 100 100 100 100 100 100 100 100 100 100 100 100 100 79 40 29 78 100 99 100 100 100 100 100 100 100 100 100
24 35 80 87 50 83 72 98 100 100 100 100 100 100 100 100 100 100 100 100 100 100 100 100 100 93 66 94 27 50 94 100 100 100 100 100 100 100 100 100 100 100 100 100
100 100 100 41 5 4 5 14 100 100 100 100 100 100 100 100 100 100 100 100 100 100 100 100 100 100 100 100 100 100 100 100 100 100 100 100 100 100 100 100 100 100 100 100
100 100 90 26 6 2 5 6 71 100 85 100 100 100 100 100 100 100 100 100 100 100 100 100 100 100 100 100 100 100 100 100 100 100 100 100 100 100 100 100 100 100 100 100
100 100 98 99 76 5 5 3 5 32 56 31 100 100 100 100 100 100 100 100 100 100 100 100 100 100 100 100 100 100 100 100 100 100 100 100 100 100 100 100 100 100 100 100
95 100 100 73 5 5 20 100 87 100 100 100 71 42 100 100 100 100 100 100 100 100 100 100 100 100 100 100 100 100 100 100 100 100 100 100 100 100 100 100 100 100 100 100
100 100 100 100 82 11 7 51 100 100 100 100 100 88 20 69 51 96 100 100 100 100 100 100 100 100 100 100 100 100 100 100 100 100 100 100 100 100 100 100 100 100 100 100
100 100 100 100 93 96 99 100 100 100 100 100 100 100 100 100 100 100 96 100 100 100 100 100 100 100 100 100 100 100 100 100 100 100 100 100 100 100 100 100 100 100 100 100
100 100 100 100 100 100 100 94 100 100 100 100 100 100 100 100 100 100 100 100 100 100 99 100 100 100 100 100 100 100 100 100 100 100 100 100 100 100 100 100 100 100 100 100

GFSCGP_prec_cloud_105.txt.gz
Cloud_Cover
100 100 100 100 100 100 100 100 100 100 100 33 85 100 100 100 85 74 98 100 100 99 86 100 100 100 100 100 93 35 100 100 100 100 96 91 100 100 100 100 100 100 100 100
99 100 100 100 100 100 100 100 100 100 100 89 98 100 90 28 100 100 83 76 83 99 100 94 97 100 100 100 28 7 100 100 100 98 88 86 57 92 100 100 100 100 100 100
98 99 100 100 100 100 100 100 100 100 100 100 100 99 6 43 70 96 100 100 100 100 100 100 100 100 89 96 96 96 100 100 100 100 100 100 100 100 100 100 100 100 100 100
100 92 100 100 100 100 100 100 100 100 100 100 100 91 100 58 15 95 97 100 100 100 99 100 100 100 100 87 100 100 100 100 100 100 100 100 100 100 100 100 100 100 100 100
31 90 82 100 100 100 100 100 100 100 100 100 100 98 69 5 75 100 93 100 100 100 100 100 100 100 100 100 100 100 100 74 100 100 100 100 100 100 100 100 100 100 100 100
33 94 100 100 100 100 100 100 100 100 100 100 100 100 81 9 100 100 100 100 100 100 100 100 100 100 100 100 100 100 100 100 100 100 100 100 100 100 100 100 100 100 100 100
2 3 61 100 100 100 100 100 100 100 100 100 100 22 7 99 52 97 88 95 100 100 100 100 100 100 100 100 100 100 100 100 94 100 100 100 100 100 100 100 100 100 100 100
5 0 2 99 100 100 100 100 100 100 100 100 100 96 96 100 45 99 99 100 80 100 100 100 100 100 100 100 100 100 100 100 100 100 100 100 100 100 100 100 100 100 100 100
5 2 90 100 100 100 100 100 100 100 100 100 100 100 100 100 79 78 100 97 100 100 100 100 100 100 100 100 100 100 100 100 100 100 100 100 100 100 100 100 100 100 100 82
28 5 97 100 100 100 100 100 100 100 85 99 17 94 100 81 100 92 90 100 100 100 100 100 100 94 100 100 100 100 100 100 100 100 100 100 100 100 100 100 100 100 99 77
45 32 82 100 95 100 100 100 100 100 100 100 100 100 100 100 100 100 100 100 100 100 100 100 100 96 87 100 100 100 100 100 100 100 100 94 99 100 99 100 99 100 100 100
99 100 100 100 100 100 100 100 100 100 100 100 100 100 100 76 100 100 100 100 100 100 100 100 100 100 100 100 97 100 97 100 100 100 94 100 100 97 51 45 50 55 82 81
97 100 100 100 100 100 94 100 100 100 100 100 100 97 94 100 100 100 100 100 100 91 99 89 100 100 100 100 100 100 100 100 100 100 100 100 100 100 96 97 95 100 100 100
100 100 100 100 100 100 100 100 100 100 100 100 100 100 100 100 100 100 100 100 100 100 100 100 100 100 100 100 100 100 100 100 100 100 100 100 100 100 100 100 100 100 100 100
100 100 97 100 100 100 100 100 100 100 100 100 100 100 100 100 100 100 100 100 100 100 100 99 100 100 100 100 100 100 100 100 100 100 100 100 100 100 100 100 100 100 100 100
100 100 100 100 100 100 100 100 100 100 100 100 100 100 100 100 100 100 100 100 100 100 100 100 100 100 100 100 100 100 100 100 100 100 100 97 100 100 100 100 100 100 100 100
100 100 100 100 100 100 100 100 100 100 100 100 100 100 100 100 100 100 100 100 100 100 100 100 100 100 100 100 100 100 100 100 99 97 100 100 100 100 100 100 100 100 100 100
100 100 100 100 100 100 100 100 100 100 100 100 100 100 100 100 100 100 100 100 100 100 100 100 100 100 100 100 93 100 100 100 91 91 100 100 100 100 100 100 100 100 100 100
99 96 100 100 100 100 100 100 100 99 100 100 100 100 100 100 100 100 100 100 100 100 100 100 100 100 100 74 85 100 100 100 100 100 100 100 100 100 100 100 100 100 100 100
100 100 100 100 86 8 64 5 96 100 6 100 100 100 100 100 100 100 100 100 100 100 100 100 100 100 100 100 100 100 100 100 100 100 100 100 100 100 100 100 100 100 100 100
100 100 93 25 100 5 5 100 56 92 30 96 87 100 100 100 100 100 100 100 100 100 100 100 100 100 100 100 100 100 100 100 100 100 100 100 100 100 100 100 100 100 100 100
100 100 100 100 72 1 3 0 3 37 100 66 100 76 100 100 100 100 100 100 100 100 100 100 100 100 100 100 100 100 100 100 100 100 100 100 100 100 100 100 100 100 100 100
100 100 100 100 23 5 5 7 94 100 100 97 15 14 43 13 98 100 100 100 100 100 100 100 100 100 100 100 100 100 100 100 100 100 100 100 100 100 100 100 100 100 100 100
100 100 100 100 18 100 11 7 34 94 97 100 73 5 17 25 5 5 100 100 94 100 100 100 100 100 100 100 100 100 100 100 100 100 100 100 100 100 100 100 100 100 100 100
100 100 100 100 100 100 100 100 100 93 5 43 98 100 100 100 99 53 17 10 80 86 93 100 100 100 100 100 100 100 100 100 100 100 100 100 100 100 100 100 100 100 100 100
100 100 100 100 100 100 76 64 68 68 98 91 47 97 100 100 100 100 98 100 97 62 59 100 100 100 100 100 100 100 100 100 100 100 100 100 100 100 100 100 100 100 100 100

GFSCGP_prec_cloud_108.txt.gz
Cloud_Cover
100 100 100 100 100 100 100 100 100 100 100 95 100 100 100 86 31 10 93 100 100 80 84 66 71 100 100 100 100 100 100 100 66 52 99 100 100 100 100 100 100 100 100 100
100 100 100 100 100 100 100 100 100 100 100 100 100 100 100 13 23 45 68 78 95 78 100 38 24 93 19 93 100 100 84 100 79 81 100 100 100 100 100 100 100 100 100 100
99 100 100 100 100 100 100 100 100 100 100 97 62 87 89 9 5 15 85 100 60 95 100 96 76 96 80 100 92 97 100 100 99 99 100 100 100 100 100 100 100 100 100 100
100 100 80 100 81 94 100 100 100 100 100 100 98 96 61 55 14 49 100 86 99 100 100 100 82 91 100 100 100 78 100 100 100 100 100 100 100 100 100 100 100 100 100 100
84 99 95 98 100 98 100 100 100 100 100 99 40 45 7 21 44 100 34 100 100 100 100 100 100 92 96 100 100 100 100 100 100 100 100 100 100 100 100 100 100 100 100 100
5 5 5 6 100 96 36 100 100 100 100 79 92 70 100 100 100 100 88 100 100 100 100 100 79 100 100 100 100 100 100 100 100 99 100 100 100 100 100 100 100 100 100 100
6 5 27 38 56 89 67 100 100 100 100 100 100 84 100 100 85 100 100 98 100 98 92 100 97 100 100 100 100 100 100 99 100 100 100 100 100 100 100 100 100 100 100 100
94 100 17 4 12 18 100 86 100 100 100 100 100 100 100 100 100 100 100 100 100 100 100 100 100 100 100 100 100 100 100 100 100 82 100 100 100 100 100 100 100 100 100 100
100 41 95 100 99 62 100 28 100 100 100 100 100 100 93 100 100 100 100 100 100 100 100 100 100 100 100 78 100 100 100 100 100 99 100 100 100 100 100 100 100 100 100 100
100 100 100 100 93 5 3 48 5 100 100 100 100 100 100 100 100 100 100 100 100 100 100 100 100 97 100 91 88 72 96 100 100 100 100 100 100 100 100 100 100 100 100 100
100 100 100 100 100 84 5 0 4 24 100 100 100 100 100 100 100 100 100 100 100 100 100 100 100 75 56 46 27 97 100 100 100 100 100 100 100 100 100 100 100 100 100 100
100 100 100 100 100 100 6 0 0 2 98 100 100 100 100 100 100 100 100 100 100 100 100 100 100 100 100 83 85 50 45 66 100 100 100 100 100 100 100 100 100 100 100 100
100 100 100 100 100 75 4 0 0 0 9 100 100 100 100 100 100 100 100 100 100 100 100 100 99 100 100 100 94 77 99 97 100 100 100 100 100 100 100 100 100 100 100 100
100 100 100 100 100 100 36 7 27 13 59 99 80 100 100 100 97 100 100 100 100 100 100 100 97 100 98 96 100 100 100 100 100 100 100 100 100 100 100 100 100 100 100 100
99 92 14 100 96 94 97 100 100 100 100 56 36 100 100 100 100 100 100 100 100 100 100 100 100 86 91 52 100 100 100 100 100 100 100 100 100 100 100 100 100 100 100 100
86 7 86 7 87 93 95 100 100 36 5 20 5 46 100 100 100 100 100 100 100 100 100 100 100 100 100 100 100 100 100 100 100 100 100 100 100 100 100 100 100 100 100 100
99 96 100 100 95 100 100 62 62 42 23 100 12 89 100 100 100 100 100 100 100 100 100 100 100 100 100 100 100 100 100 100 100 100 100 100 100 100 100 100 100 100 100 100
100 100 100 100 100 100 9 5 7 34 89 100 100 100 100 100 100 100 100 100 100 100 100 100 100 100 100 100 100 100 100 100 100 100 100 100 100 100 100 100 100 100 100 100
57 100 100 100 100 100 20 2 95 100 100 100 100 100 100 100 100 100 100 100 100 100 100 100 100 100 100 100 100 100 100 100 100 100 100 100 100 100 100 100 100 100 100 100
92 100 100 100 100 80 0 22 100 93 19 100 100 100 100 100 5 98 100 100 100 100 100 100 100 100 100 100 100 100 100 100 100 100 100 100 100 100 100 100 100 100 100 100
100 100 100 100 100 92 10 100 79 100 76 100 54 100 100 100 71 98 100 100 100 100 100 100 100 100 100 100 100 100 100 100 100 100 100 100 100 100 100 100 100 100 100 100
100 97 100 100 100 39 100 100 90 91 100 100 100 100 100 100 100 41 96 98 82 100 100 100 100 100 100 100 100 100 100 100 100 100 100 100 100 100 100 100 100 100 100 100
99 100 100 100 100 100 100 100 100 100 100 100 95 86 100 5 5 14 95 55 97 100 100 100 100 100 100 100 100 100 100 100 100 100 100 100 100 100 100 100 100 100 100 100
100 100 100 100 100 100 100 87 100 100 100 100 53 75 98 100 100 42 72 96 100 100 100 100 100 100 100 100 100 100 100 100 100 100 100 100 100 100 100 100 100 100 100 100
100 100 100 100 100 95 91 100 100 100 100 98 95 100 100 44 9 53 95 100 88 92 96 100 100 100 100 100 100 100 100 100 100 100 100 100 100 100 100 100 100 100 100 100
100 100 100 84 60 99 100 100 100 91 63 98 100 100 100 40 60 35 55 77 100 42 54 90 97 100 100 100 100 96 100 100 100 100 100 100 100 100 100 100 100 100 100 100

GFSCGP_prec_cloud_111.txt.gz
Cloud_Cover
100 100 100 100 100 100 100 100 100 100 100 68 86 100 100 84 81 96 7 91 94 87 67 97 77 77 71 100 98 6 82 100 100 100 100 100 100 99 79 100 100 100 100 100
96 100 100 100 100 100 100 100 100 100 100 100 71 98 100 92 92 68 91 75 13 65 100 70 80 99 96 94 71 96 87 100 100 100 100 100 100 57 85 100 100 100 100 100
100 100 100 100 100 100 100 100 100 100 100 100 100 100 100 100 100 100 5 92 16 96 71 100 84 99 79 96 90 62 90 100 100 100 99 100 100 100 100 100 87 100 100 100
97 100 100 100 100 100 100 100 100 100 100 100 97 100 100 100 100 42 92 98 90 85 97 58 44 96 87 90 79 94 97 100 100 100 100 100 100 100 100 100 100 100 100 100
30 84 100 100 100 100 100 100 100 100 100 100 100 100 100 100 100 37 76 100 100 87 76 87 100 88 62 99 100 100 94 100 100 100 100 100 100 100 100 100 93 100 100 100
100 90 100 100 100 100 100 99 100 100 100 100 100 100 100 100 100 100 100 100 100 100 100 100 68 47 55 60 94 100 96 100 100 100 100 100 100 100 100 100 100 100 100 100
100 100 100 100 97 100 100 100 100 100 100 100 100 100 100 100 100 100 100 100 100 100 100 95 66 94 100 100 100 95 100 99 100 92 100 97 100 100 61 98 83 100 100 100
100 100 100 100 100 100 100 100 100 100 100 100 100 100 100 100 100 100 100 100 100 100 100 100 100 100 100 100 85 49 18 50 78 100 100 100 100 100 100 100 100 100 100 100
100 100 100 100 100 100 99 97 100 100 97 100 100 100 100 100 100 100 100 100 100 100 100 100 100 100 100 94 68 8 58 28 17 75 95 100 100 100 100 99 100 100 100 100
100 100 100 100 100 100 100 100 96 100 48 100 100 100 100 100 100 100 100 100 100 100 100 100 100 100 100 99 44 42 93 5 5 19 88 46 100 99 100 100 100 100 100 100
100 100 100 100 58 100 100 100 99 100 44 6 70 100 100 100 100 100 100 100 100 100 100 90 60 28 100 100 89 86 78 7 27 42 92 99 100 95 99 100 100 100 100 100
100 100 100 100 100 100 100 100 94 5 3 5 5 93 100 100 100 100 100 100 100 100 100 100 100 100 100 100 100 100 98 22 100 100 100 100 72 86 95 99 100 100 100 100
100 100 100 100 100 100 100 100 100 6 84 5 0 36 75 100 100 100 100 100 100 100 100 100 100 100 100 98 100 100 79 62 99 100 100 100 99 100 100 100 100 100 100 100
100 100 100 100 100 100 100 100 100 99 67 2 4 3 36 57 89 99 100 100 100 100 100 100 99 96 90 100 100 100 98 5 63 94 100 100 100 100 100 100 100 100 100 100
100 100 100 100 100 89 66 100 100 41 4 0 6 1 0 3 33 35 100 100 100 100 97 100 100 100 99 95 100 100 100 100 100 100 100 100 100 100 100 100 100 100 100 100
85 24 18 94 100 100 100 100 100 53 3 5 5 3 2 5 5 33 100 68 100 100 100 100 100 100 100 100 100 100 100 100 100 100 100 100 100 100 100 100 100 100 100 100
100 100 100 100 100 100 100 100 100 99 6 6 4 16 80 2 5 32 41 100 92 100 100 100 100 100 100 100 100 100 100 100 100 100 100 100 100 100 100 100 100 100 100 100
100 100 56 71 100 92 84 100 78 82 10 1 5 6 1 2 4 16 96 100 100 100 100 100 100 100 100 100 100 100 100 100 100 100 100 100 100 100 100 100 100 100 100 100
100 100 83 100 100 6 0 0 0 68 72 77 5 8 3 1 5 33 100 96 100 100 100 100 100 100 100 100 100 100 100 100 100 100 100 100 100 100 100 100 100 100 100 100
96 100 100 63 67 5 0 0 6 38 50 100 92 40 39 21 6 37 100 100 94 99 100 100 100 100 100 100 100 100 100 100 100 100 100 100 100 100 100 100 100 100 100 100
74 86 34 23 55 7 0 18 100 58 29 100 81 48 100 100 95 87 100 100 100 12 64 98 100 100 100 100 100 100 100 100 100 100 100 100 100 100 100 100 100 100 100 100
5 39 9 14 26 44 0 28 69 42 100 100 100 100 100 100 100 100 100 100 100 65 5 5 46 100 100 100 100 100 100 100 100 100 100 100 100 100 100 100 100 100 100 100
14 2 1 0 5 0 2 6 99 100 100 100 100 100 100 100 100 78 100 100 100 100 93 35 6 66 100 100 100 100 100 100 100 100 100 100 100 100 100 100 100 100 100 100
96 43 33 14 4 5 5 57 100 97 100 100 100 100 100 100 85 9 6 20 86 92 100 100 100 100 100 100 96 100 100 100 100 100 100 100 98 99 100 100 100 100 100 100
64 86 4 13 5 5 22 92 100 100 100 100 100 100 100 100 100 100 100 100 100 100 100 100 100 100 100 100 100 100 100 100 100 100 100 92 97 96 100 100 100 100 100 100
99 37 54 5 5 5 72 100 100 100 100 100 100 100 100 100 100 100 100 100 100 100 100 100 99 97 87 92 94 100 100 100 100 100 100 100 93 98 100 100 100 100 100 100

GFSCGP_prec_cloud_114.txt.gz
Cloud_Cover
100 100 100 100 100 100 100 100 100 100 100 100 100 100 100 98 44 70 93 81 38 97 39 100 99 88 100 100 100 100 100 100 44 100 100 100 100 100 100 100 100 100 100 100
100 100 100 100 100 100 100 100 100 100 96 76 97 100 100 88 100 90 57 31 99 76 43 92 100 100 96 98 100 96 72 99 70 91 95 100 100 100 99 100 100 100 100 100
99 100 100 100 100 100 100 100 100 100 100 100 100 100 100 100 100 94 29 81 18 74 93 80 68 59 68 84 95 75 16 25 77 61 76 93 100 100 100 100 100 100 100 100
100 88 90 100 100 100 100 100 100 100 100 100 100 100 92 100 100 100 98 55 95 96 65 100 100 100 100 95 53 41 100 96 82 88 38 53 100 100 100 100 100 100 100 100
98 98 100 100 100 100 100 100 100 100 100 100 100 100 100 99 100 100 100 100 100 100 99 100 100 100 100 96 100 43 63 100 99 100 60 77 85 97 99 100 100 100 100 100
81 100 97 100 89 100 100 100 100 100 100 100 100 100 100 100 100 93 100 100 100 100 100 100 100 100 100 90 100 100 98 78 10 100 42 58 69 42 62 100 100 100 99 100
42 11 5 17 90 100 100 100 100 100 100 100 100 100 100 100 100 100 100 100 100 100 100 100 100 70 100 99 100 100 99 100 74 57 70 20 51 100 84 99 100 100 97 100
100 100 75 55 42 58 100 100 100 100 100 100 100 100 100 100 100 100 100 100 100 100 86 100 100 100 100 100 100 100 100 99 98 60 97 96 70 98 80 100 65 99 98 100
100 100 100 100 100 100 100 100 100 99 99 100 100 100 100 100 100 100 100 100 98 11 20 87 100 73 100 100 100 100 30 5 5 13 92 100 100 100 100 100 88 96 100 100
100 100 100 100 100 100 100 100 58 88 66 70 100 100 100 100 100 100 100 100 100 76 97 90 99 100 100 100 90 39 74 54 70 21 65 90 100 100 99 100 100 100 98 100
100 100 100 100 100 100 100 100 100 76 82 5 9 54 100 100 100 100 100 100 100 100 100 85 100 100 100 100 100 63 55 100 99 97 100 84 98 100 100 100 100 100 100 100
100 100 100 100 100 100 100 100 65 54 6 5 5 5 83 100 100 100 100 100 100 100 100 100 99 100 100 100 100 100 100 100 100 55 10 87 100 100 100 100 100 100 100 100
100 100 100 100 100 100 53 98 100 94 16 13 8 3 4 28 98 100 100 100 100 100 100 100 100 98 98 98 96 94 100 100 100 96 100 86 88 100 100 100 100 99 100 100
100 100 100 100 100 100 100 100 100 100 29 56 90 96 11 37 5 5 34 98 100 100 100 100 100 100 99 64 97 94 100 100 100 100 100 100 100 100 99 100 100 100 100 100
100 100 100 100 100 100 86 97 99 20 9 12 46 46 100 78 73 11 0 3 38 100 100 100 100 100 100 100 100 100 100 100 100 100 100 100 100 100 100 100 100 100 100 100
51 5 5 51 100 68 45 68 6 7 5 5 5 2 23 5 15 95 91 0 0 0 4 30 44 68 100 100 100 100 100 100 100 100 100 100 100 100 100 100 100 100 100 100
100 92 88 34 62 50 79 11 22 5 4 8 4 43 74 1 2 44 99 19 0 0 0 0 0 0 4 94 100 100 100 100 100 100 100 100 100 100 100 100 100 100 100 100
100 100 100 100 100 75 4 9 33 5 5 20 4 5 5 5 3 2 98 61 4 4 3 0 0 0 0 3 100 100 100 100 100 100 100 100 100 100 100 100 100 100 100 100
29 55 44 14 4 35 6 37 51 80 22 15 4 22 5 0 0 0 7 32 91 95 2 0 4 0 16 25 14 100 100 100 100 100 100 100 100 100 100 100 100 100 100 100
8 37 100 99 34 5 15 5 68 71 6 91 1 0 0 1 5 3 100 100 100 96 99 15 0 4 5 39 90 95 100 100 100 100 100 100 100 100 100 100 100 100 100 100
100 100 100 94 39 4 90 54 57 5 35 15 29 1 0 0 1 11 100 100 100 100 100 90 6 2 2 7 98 74 96 100 100 100 100 100 100 100 100 100 100 100 100 100
100 95 6 5 9 5 5 5 5 8 5 4 0 2 5 5 2 1 88 100 100 100 100 98 68 5 5 5 27 96 100 100 100 100 100 100 100 100 100 100 100 100 100 100
39 5 5 5 5 5 3 0 1 5 87 20 0 5 5 25 4 7 96 100 100 100 100 100 100 79 89 90 100 100 100 100 100 100 100 100 100 100 100 100 100 100 100 100
80 5 5 6 5 23 5 2 5 6 90 16 3 5 57 83 14 76 99 100 100 100 100 100 100 100 100 100 100 100 100 100 100 100 100 100 100 100 100 100 100 100 100 100
28 53 5 5 26 6 5 13 5 6 5 5 5 4 5 88 86 90 100 96 100 100 100 100 100 100 100 100 100 100 100 100 100 100 100 100 100 100 100 100 100 100 100 100
65 22 23 4 6 5 5 5 5 5 5 5 5 5 5 35 76 14 100 100 100 100 100 100 100 100 100 100 100 100 100 100 100 100 100 100 100 100 100 100 100 100 100 100

GFSCGP_prec_cloud_117.txt.gz
Cloud_Cover
100 100 100 100 100 100 100 100 100 100 100 100 100 100 100 100 45 10 8 100 5 38 2 45 7 74 92 100 100 91 100 98 100 100 100 99 7 100 100 100 100 100 100 98
100 100 100 100 100 100 100 100 100 100 100 100 100 100 100 100 100 93 46 10 13 32 8 54 9 10 61 58 94 45 100 100 100 100 95 90 99 100 85 79 66 97 99 100
100 100 100 100 100 100 100 100 100 100 100 100 100 100 100 100 100 97 88 75 35 23 75 92 100 97 74 94 50 5 15 80 100 100 88 30 22 60 64 46 54 100 100 100
100 100 100 100 100 100 100 100 100 100 100 100 100 100 100 100 100 100 100 100 100 93 28 9 100 67 100 100 90 5 5 5 49 100 100 71 93 88 80 27 9 20 91 100
100 100 100 100 100 100 100 100 100 100 100 100 100 100 100 100 100 100 100 100 71 94 61 38 100 100 88 8 51 82 58 24 100 100 89 41 36 99 90 42 68 95 94 31
100 100 100 100 100 100 100 100 100 100 100 100 100 100 100 100 100 100 100 100 100 62 32 37 94 91 81 90 40 48 84 82 31 99 100 100 100 96 91 100 100 65 81 100
97 96 100 100 100 100 100 100 100 100 100 99 100 100 100 100 100 100 100 100 99 100 100 79 95 100 100 99 89 82 100 100 82 5 6 100 97 100 100 100 100 99 98 89
100 96 46 63 92 80 100 100 100 100 100 100 100 100 100 100 100 100 100 54 100 100 100 100 98 81 100 100 100 100 100 100 100 26 97 75 72 48 100 96 91 100 100 100
100 100 100 100 100 83 88 99 48 56 11 18 18 100 100 100 100 100 100 100 56 26 6 89 100 85 79 5 91 100 99 100 100 100 98 98 100 99 100 100 100 100 100 100
100 100 100 100 100 100 100 100 100 100 36 40 86 100 100 100 100 100 100 100 100 67 89 75 5 76 53 75 69 50 100 100 100 100 88 100 100 100 100 100 100 100 100 100
100 100 100 100 100 100 100 100 100 95 88 5 11 72 100 100 100 100 100 100 100 100 100 100 100 49 41 75 97 75 87 57 61 100 100 100 69 100 100 100 100 100 100 100
100 100 89 100 100 100 100 100 100 100 78 53 6 66 93 100 100 100 100 100 100 100 100 100 100 100 93 16 5 5 27 36 47 52 96 96 97 100 100 100 100 100 100 100
100 100 100 100 100 100 100 100 100 100 96 19 23 2 8 51 11 24 90 100 100 93 73 62 31 83 100 99 100 74 81 53 57 79 98 96 92 100 100 100 100 100 100 100
100 100 100 100 100 100 100 100 100 100 100 82 76 70 5 5 9 4 5 4 41 98 100 100 100 100 87 100 100 100 100 100 100 97 100 100 100 100 100 100 100 100 100 100
99 100 100 100 96 93 100 100 100 84 30 18 17 5 79 50 84 12 4 4 3 2 1 6 17 58 66 62 83 100 100 100 100 100 100 100 100 100 100 100 100 100 100 100
77 56 82 100 100 100 100 100 100 100 100 100 100 100 100 100 39 22 3 0 5 0 0 0 0 0 1 5 5 0 5 19 57 98 100 100 100 96 100 100 100 100 100 100
100 99 13 41 100 100 100 100 100 100 100 100 91 99 100 19 10 2 0 0 1 3 0 0 0 0 0 0 4 5 1 0 3 53 41 35 77 100 100 100 100 100 100 100
100 100 100 100 100 100 6 53 96 57 100 96 67 100 100 58 5 0 0 0 5 4 0 0 0 0 0 0 0 0 5 5 5 4 5 5 5 81 100 100 100 100 100 100
100 100 63 98 35 8 0 1 5 5 5 14 6 44 61 6 5 5 25 95 57 5 25 4 1 0 0 0 0 0 0 1 21 98 66 9 8 26 100 100 100 100 100 100
5 44 75 53 5 4 0 0 0 0 0 0 0 5 5 4 0 3 2 2 0 3 5 12 76 31 2 0 0 0 5 5 20 29 94 100 100 100 100 100 100 100 100 100
12 64 4 5 5 2 0 0 0 0 11 100 100 76 5 0 0 0 0 0 0 0 4 100 100 100 100 74 7 5 61 100 31 5 16 95 100 100 100 100 100 100 100 100
10 5 4 13 5 4 0 0 0 47 100 100 100 17 5 5 1 0 0 0 0 0 0 26 100 100 100 100 100 56 29 44 100 100 82 94 100 100 100 100 100 100 100 100
6 1 0 2 1 3 2 99 100 100 49 20 46 82 56 52 2 0 0 0 0 0 0 0 0 1 84 100 100 100 78 23 98 100 100 100 100 100 100 100 100 100 100 100
82 11 9 2 0 2 37 100 100 100 100 95 56 12 8 5 3 0 4 1 0 3 0 0 0 1 98 93 96 100 97 100 100 100 100 100 100 100 100 100 100 100 100 100
70 93 36 5 1 8 81 95 70 87 83 76 92 100 40 4 0 2 3 5 5 3 0 2 4 30 100 100 100 100 100 100 100 100 100 100 100 100 100 100 100 100 100 100
5 10 43 5 5 5 10 16 5 19 80 100 100 100 91 5 4 5 5 4 4 10 5 4 4 4 79 100 100 100 100 100 100 100 100 100 100 100 100 100 100 100 100 100

GFSCGP_prec_cloud_123.txt.gz
Cloud_Cover
92 92 75 100 100 100 100 100 100 100 93 100 100 40 27 5 95 12 87 21 5 9 14 14 9 5 6 5 5 5 5 5 25 100 11 67 53 100 100 100 100 72 100 100
100 68 75 100 100 100 100 100 100 100 100 100 100 95 97 48 5 5 51 53 84 11 5 5 5 8 7 5 5 5 8 68 62 40 81 90 100 99 100 41 37 100 100 100
98 59 100 100 100 100 98 100 100 100 100 100 100 100 22 100 29 5 22 37 18 96 89 63 20 5 42 75 31 5 33 100 100 84 37 42 86 100 97 73 67 90 100 69
98 98 100 100 100 100 94 100 100 100 100 100 100 100 100 100 100 89 39 5 5 5 32 29 83 74 100 13 5 5 5 12 99 100 100 83 93 100 74 68 100 100 100 100
63 10 28 100 100 100 100 100 100 100 100 100 100 100 100 100 100 100 100 43 4 5 86 100 98 86 93 76 94 25 23 54 29 98 94 99 98 82 96 99 100 98 100 100
100 91 100 100 100 100 100 100 100 100 100 100 100 100 100 100 100 100 100 100 27 7 35 100 100 100 100 98 100 75 38 77 49 75 100 100 80 88 91 94 45 84 90 81
100 100 100 100 100 100 100 100 100 100 100 93 100 100 100 100 100 100 100 55 37 25 53 100 100 100 100 100 100 97 100 94 100 100 100 34 59 38 6 77 100 97 100 100
78 99 53 100 100 100 100 100 97 87 59 100 100 100 100 100 100 100 92 70 100 100 99 11 10 70 100 100 100 100 100 100 100 100 100 69 25 11 82 13 5 5 45 90
93 82 100 21 20 98 100 100 100 85 91 100 100 100 100 100 100 100 100 43 28 12 7 97 55 5 90 48 99 100 100 100 100 100 100 100 100 55 23 10 11 5 41 22
100 99 100 100 100 100 99 100 100 100 67 14 6 5 100 100 100 100 100 94 18 5 79 86 82 91 100 98 56 62 100 100 98 77 92 100 100 100 100 100 100 98 34 51
100 100 100 100 100 100 100 100 79 85 58 8 5 9 100 100 100 100 100 100 99 65 67 62 81 22 37 95 99 100 66 50 82 97 14 9 6 6 5 21 74 91 42 25
100 100 100 100 100 100 100 100 100 100 100 98 62 70 100 100 100 100 100 100 100 100 78 17 6 85 70 91 96 100 100 100 93 78 26 70 84 19 5 12 49 90 100 100
100 100 95 100 100 100 100 100 100 100 100 100 54 45 86 51 90 93 100 100 100 100 100 100 94 74 23 83 88 96 100 100 100 100 100 100 81 100 100 100 100 100 100 100
100 100 99 38 23 69 100 100 100 100 100 100 80 100 87 100 100 100 94 99 100 100 100 88 76 77 87 100 95 71 99 99 89 99 99 93 79 77 94 70 10 9 94 100
100 100 100 100 100 100 100 100 100 100 100 100 100 100 100 100 100 100 100 100 100 100 100 100 100 100 70 58 76 76 5 6 2 1 0 0 0 0 0 0 46 40 26 25
100 100 100 100 100 100 100 100 100 99 100 100 100 100 100 100 100 97 100 80 46 79 89 94 100 100 100 100 100 9 6 5 5 5 1 1 0 0 0 0 0 52 80 100
100 100 100 100 100 100 100 100 100 100 100 100 97 100 100 100 81 84 16 5 10 5 5 5 45 84 69 99 100 46 44 41 28 5 1 0 0 0 0 0 4 15 29 50
98 98 100 100 100 100 95 100 100 100 100 100 100 100 100 100 100 50 5 52 72 5 5 5 4 1 4 5 15 12 6 4 4 3 2 0 0 7 0 1 7 2 11 90
100 100 100 100 96 100 100 100 100 100 100 100 100 100 100 100 99 17 98 100 90 31 5 1 3 3 1 0 2 3 3 0 0 0 0 0 0 14 10 33 24 10 87 100
100 100 100 100 100 100 100 100 100 100 100 100 100 100 100 100 100 100 100 54 14 38 5 4 0 0 2 1 0 2 2 0 0 0 0 0 0 16 23 12 29 27 86 100
100 100 100 100 100 100 100 100 100 100 100 100 100 100 100 50 68 100 100 70 16 5 2 0 0 0 0 0 0 0 0 0 0 6 14 18 13 18 16 14 23 58 100 100
100 100 100 93 100 100 100 100 100 100 100 95 85 71 23 9 5 5 5 5 5 5 3 0 0 0 0 0 0 4 6 2 92 25 24 71 96 99 99 23 40 100 100 100
73 18 100 100 100 100 100 100 100 100 16 4 0 0 0 0 0 0 0 2 0 0 0 0 0 6 10 8 19 82 59 84 74 100 100 100 100 100 100 61 58 100 100 100
73 100 94 100 100 100 100 100 100 100 95 61 5 4 1 0 0 0 0 0 0 5 12 4 0 17 57 55 33 47 44 100 100 96 100 53 44 87 93 33 26 40 97 100
99 99 70 96 100 100 100 100 100 100 100 100 100 100 83 23 1 0 0 0 1 22 10 2 11 47 82 100 100 100 100 100 63 19 68 100 86 46 35 28 23 22 12 39
100 100 56 5 90 100 100 100 100 100 100 100 100 100 100 90 87 5 5 3 15 34 20 28 38 72 90 98 97 100 100 58 66 83 40 33 29 55 31 32 10 5 5 5

GFSCGP_prec_cloud_129.txt.gz
Cloud_Cover
100 100 100 4 0 1 3 100 100 100 100 100 28 100 18 89 5 68 99 8 13 87 12 5 54 27 5 5 6 5 6 5 5 86 5 5 5 5 5 5 5 5 5 5
100 100 52 55 2 96 8 17 100 100 100 100 100 99 8 5 5 71 37 6 92 10 6 6 5 29 6 12 71 80 9 13 5 20 6 5 5 5 5 5 5 5 5 4
100 56 100 92 37 32 98 4 90 100 100 100 100 99 5 6 89 93 16 5 26 94 28 36 5 74 5 77 25 58 40 41 41 29 14 11 6 5 11 4 21 16 5 5
100 97 100 100 88 18 100 7 71 100 100 100 100 100 5 27 52 63 62 5 5 71 41 21 81 86 96 91 5 5 5 5 9 36 95 93 37 100 62 48 38 5 5 9
100 80 73 40 2 15 66 49 100 100 100 100 100 100 7 5 70 80 6 21 5 5 30 45 92 98 39 38 99 35 81 100 100 100 100 100 100 78 16 100 87 60 41 6
100 99 100 8 49 54 100 100 100 100 97 100 71 93 100 12 92 18 4 5 96 82 26 52 73 100 60 81 64 100 100 100 98 100 100 100 100 96 100 100 91 34 61 87
100 100 100 100 100 100 96 100 98 100 100 76 13 13 100 100 87 96 5 67 100 100 43 17 94 60 52 24 99 77 97 100 100 100 100 100 100 100 100 100 85 98 89 80
100 100 100 96 75 15 5 41 36 59 36 8 100 36 26 100 100 100 50 17 5 16 46 29 14 42 29 77 100 58 49 5 22 39 31 62 100 100 100 95 64 100 96 100
100 100 42 14 100 88 79 94 5 22 32 7 6 5 15 100 69 100 100 97 99 100 100 100 7 23 22 89 100 96 94 22 5 5 7 79 83 41 41 11 9 7 6 17
87 98 79 100 100 100 81 59 98 85 79 28 4 4 5 86 100 99 100 100 100 100 100 100 81 63 51 100 100 100 100 100 100 100 100 100 100 86 65 70 90 74 68 89
100 68 100 100 100 99 100 70 23 15 66 5 5 1 10 100 100 100 100 100 100 100 100 100 100 100 100 100 84 84 100 100 100 100 96 19 66 80 83 95 96 76 51 16
46 84 100 100 83 100 100 100 100 100 46 5 4 1 6 98 100 100 100 100 100 100 100 100 100 100 100 100 100 100 100 100 100 81 98 100 97 75 98 100 100 100 100 100
100 100 100 100 100 100 100 100 100 83 11 20 20 1 2 81 100 100 100 100 100 100 100 100 78 71 100 100 100 100 100 100 100 100 100 100 100 100 100 100 100 100 99 100
100 100 99 36 50 29 100 12 30 100 94 3 4 0 0 4 100 100 100 100 100 100 100 100 99 13 6 44 96 93 88 100 95 88 100 100 100 100 100 75 8 12 21 41
100 100 72 1 4 20 5 93 100 100 11 100 1 3 2 5 93 100 100 100 100 100 100 100 89 98 34 5 82 97 99 47 50 31 40 98 100 100 94 84 84 100 100 100
100 100 66 5 96 100 12 12 60 100 100 100 62 9 5 5 8 98 100 100 100 100 100 100 100 100 100 100 100 100 100 100 100 100 100 100 100 100 100 84 86 84 100 100
100 100 99 100 100 100 100 75 7 2 5 21 20 5 98 84 36 96 100 100 100 100 100 100 100 78 100 100 100 100 100 100 100 99 96 100 100 100 100 100 100 56 5 9
100 100 93 94 100 100 7 3 0 0 2 36 14 6 64 22 15 62 27 11 21 100 100 100 100 100 100 100 100 100 100 100 100 100 100 100 86 85 100 87 12 5 3 1
100 100 100 100 100 84 5 5 5 5 0 0 5 98 58 56 90 24 7 5 73 100 100 100 100 100 100 100 100 100 100 100 100 100 100 98 22 44 20 44 66 5 35 91
100 100 100 100 100 79 8 92 5 99 7 8 94 78 100 100 100 5 100 100 100 100 100 99 91 88 87 100 99 100 100 100 99 94 100 100 100 100 100 95 86 71 78 100
100 100 100 100 100 100 97 96 97 100 3 59 16 5 100 100 40 88 100 86 22 6 8 17 6 5 5 66 88 59 46 44 97 100 100 100 83 84 49 55 58 100 100 100
92 100 100 100 96 41 83 100 100 30 5 4 100 100 100 100 100 100 100 100 18 16 8 5 5 5 93 61 45 99 65 96 91 100 100 100 100 100 100 67 100 100 100 100
100 100 100 100 65 96 100 96 100 100 9 73 100 100 100 66 98 96 100 100 92 77 71 25 5 6 21 18 5 7 98 100 100 100 100 100 100 100 100 100 100 100 100 100
100 100 100 100 33 100 99 100 100 100 100 100 100 100 100 100 96 80 93 100 35 5 22 54 94 99 100 52 80 88 100 100 100 100 100 100 100 100 100 99 99 98 85 50
100 100 100 100 100 100 100 100 100 88 42 91 38 100 98 31 100 100 100 100 100 100 100 93 98 100 100 100 100 100 100 100 100 100 100 100 79 76 87 58 43 28 78 100
100 100 100 100 100 100 100 100 100 100 100 40 7 94 5 7 89 100 100 100 100 100 100 96 100 100 100 100 100 100 99 49 100 100 95 73 51 28 16 46 65 34 100 100

GFSCGP_prec_cloud_132.txt.gz
Cloud_Cover
100 100 100 100 3 5 2 0 100 100 100 100 100 100 100 17 6 99 88 70 92 100 5 26 51 5 5 4 11 100 84 58 27 12 54 99 64 19 6 5 5 5 6 8
100 100 91 84 86 70 42 1 30 100 100 77 100 100 100 66 5 27 54 84 100 95 5 56 10 5 5 5 5 5 21 6 38 78 35 8 21 12 6 58 5 5 5 3
100 70 94 100 100 100 94 87 24 90 100 5 72 90 100 100 54 56 32 50 36 99 58 53 5 22 5 5 5 5 5 26 5 12 22 88 39 18 18 5 5 7 5 5
100 100 67 100 100 80 100 83 100 76 100 5 78 53 28 66 95 66 26 19 51 71 14 5 32 80 72 100 5 5 27 44 74 74 46 84 100 96 16 5 5 5 20 91
100 100 76 61 7 95 100 100 100 100 100 100 99 93 20 5 83 100 99 65 72 65 46 36 74 99 8 33 6 8 86 68 22 99 92 77 95 32 5 85 45 83 98 99
100 100 100 100 94 100 100 100 100 100 99 96 5 51 87 5 95 100 98 98 80 100 86 23 13 5 28 41 71 96 74 100 100 95 42 94 100 99 84 86 100 99 70 91
100 100 100 74 100 91 100 100 100 100 100 10 1 4 0 34 53 100 100 100 61 100 100 83 98 93 37 89 57 100 97 94 79 100 100 100 95 100 100 100 97 99 53 38
100 100 100 99 68 100 100 96 93 100 49 2 19 20 2 100 5 100 100 100 100 98 23 44 90 89 98 92 100 91 100 72 70 90 100 82 50 93 80 14 10 10 5 5
100 100 94 70 89 65 99 100 45 99 97 30 3 0 0 23 99 3 100 100 100 100 98 23 7 74 100 98 100 100 83 66 100 43 90 80 48 33 22 8 61 100 66 82
100 100 97 14 95 100 97 89 100 100 57 71 5 2 0 0 100 34 79 100 100 100 100 100 100 100 84 89 89 75 78 61 100 98 76 56 60 100 78 89 100 96 100 100
100 100 82 100 100 100 100 99 100 100 32 5 2 0 0 0 43 100 7 63 100 100 100 100 100 100 100 100 100 100 100 100 100 100 94 100 100 100 100 100 100 100 100 100
12 100 100 100 98 85 14 68 100 100 91 5 5 13 0 0 4 100 100 40 95 100 100 100 100 100 100 100 100 100 100 100 100 96 95 100 100 100 100 100 100 100 100 100
6 56 100 100 100 100 100 50 40 100 84 27 5 1 0 63 55 98 100 100 100 100 100 100 100 100 100 100 100 100 100 100 100 100 100 100 100 100 100 100 100 100 100 100
100 6 77 74 5 84 100 49 5 69 67 30 9 0 0 2 5 62 100 100 100 100 100 100 100 100 100 100 100 100 100 100 100 100 100 100 100 100 100 100 100 100 100 100
100 100 83 9 79 100 96 100 40 66 3 97 5 1 4 6 6 100 100 100 100 100 100 100 100 100 100 100 100 100 100 100 100 100 100 100 100 100 100 100 100 75 97 77
100 100 100 84 77 100 100 100 95 10 8 6 0 0 0 6 100 79 100 100 100 100 100 100 100 84 42 18 26 55 88 100 100 100 100 100 100 100 100 100 100 100 100 100
100 97 100 100 31 60 100 93 28 8 0 4 4 0 79 15 36 47 100 100 100 100 100 100 100 100 100 100 62 24 83 100 100 100 100 100 100 100 100 100 100 95 80 93
90 100 100 87 100 100 12 2 2 4 0 0 1 3 5 4 99 100 99 100 100 100 100 100 100 93 35 18 32 99 94 100 100 100 100 100 100 100 100 71 21 26 6 29
96 100 100 100 100 100 13 2 2 5 3 0 0 0 1 0 1 51 84 9 87 100 100 100 100 95 91 96 100 100 100 100 100 100 100 100 99 19 6 11 71 6 28 91
100 100 100 100 100 95 0 0 0 58 49 0 0 0 0 1 5 0 5 99 100 100 100 100 100 100 100 100 100 100 100 100 100 100 100 100 100 65 31 100 100 96 97 90
100 100 100 100 100 57 0 0 37 100 3 55 0 2 10 100 55 0 100 100 100 100 100 100 100 100 100 100 100 100 100 100 100 100 100 100 100 100 100 100 100 100 99 96
100 100 100 100 100 58 0 45 32 0 96 75 100 100 100 100 81 7 81 72 92 62 7 90 100 100 100 100 95 100 100 100 100 100 100 100 100 100 100 100 100 100 100 100
100 100 98 99 17 0 87 87 41 100 100 100 100 100 100 100 92 8 7 100 97 6 82 5 24 60 9 12 98 100 100 100 100 100 100 100 100 100 100 100 100 100 100 100
97 100 100 76 96 73 100 100 100 100 100 100 100 100 100 76 3 0 0 13 91 100 100 67 78 6 85 39 68 97 100 100 100 100 100 100 100 100 100 100 100 100 100 100
100 100 100 100 38 98 100 100 100 100 100 100 100 100 100 100 31 1 0 5 5 5 67 26 5 5 92 100 100 100 100 100 100 100 100 100 100 100 100 100 98 100 99 55
100 100 100 100 98 100 100 100 100 100 100 100 100 100 56 8 1 0 8 100 97 37 20 56 100 100 100 100 100 100 100 100 100 100 100 100 100 100 100 100 100 72 59 21

GFSCGP_prec_cloud_135.txt.gz
Cloud_Cover
100 100 100 100 100 75 91 50 14 100 100 62 5 68 100 34 90 11 73 80 93 97 39 41 100 100 100 100 22 12 28 23 100 100 100 100 100 100 32 8 4 5 5 5
100 100 80 100 100 100 100 100 33 100 100 69 5 26 100 41 87 78 8 68 100 100 13 21 42 37 15 8 32 33 8 4 18 75 86 48 78 44 5 5 5 5 34 5
100 100 100 100 100 100 100 100 100 94 100 34 3 2 100 8 30 100 13 99 100 100 97 71 61 84 65 42 26 22 14 5 5 4 12 14 41 37 54 6 5 5 7 5
78 100 100 100 100 100 100 98 100 100 100 57 3 17 69 5 5 36 100 100 92 74 65 100 100 100 92 98 23 7 40 36 28 78 88 99 90 100 64 6 5 5 5 24
0 97 100 100 100 100 100 100 100 100 100 100 100 100 5 15 5 92 100 100 100 58 73 100 100 100 72 60 95 95 91 100 95 91 100 100 100 78 16 40 22 69 30 62
1 44 100 100 100 100 100 92 100 100 100 100 20 94 1 34 5 18 100 85 100 100 98 90 98 100 100 100 88 42 100 100 67 100 100 100 100 94 78 100 100 87 86 93
16 100 100 100 100 100 100 99 100 100 100 85 2 10 0 100 4 85 67 93 74 83 100 97 85 100 100 100 43 64 98 64 58 82 88 100 100 98 100 86 98 100 99 90
66 100 100 100 100 100 23 97 100 100 89 2 5 2 0 88 100 100 34 100 100 100 100 100 100 94 100 99 99 76 100 75 76 70 95 89 96 66 99 98 100 60 64 48
5 4 100 100 100 100 99 100 45 97 74 70 5 0 0 11 100 100 26 74 100 100 100 100 100 20 35 34 100 100 94 93 85 90 64 90 73 100 97 100 51 38 7 5
20 89 94 100 100 100 97 69 100 100 100 91 4 2 0 0 96 100 38 26 100 100 100 100 100 100 72 74 60 95 50 79 94 56 70 82 93 76 47 33 26 5 5 8
41 62 88 100 100 96 100 100 100 100 49 8 4 0 0 0 7 100 100 33 15 100 100 100 70 100 100 100 71 85 81 25 64 74 95 96 100 65 84 98 76 19 43 57
5 100 100 100 100 65 100 100 100 100 97 19 5 1 0 2 1 96 100 100 76 6 100 100 100 100 100 100 100 100 87 19 78 98 68 100 100 100 100 100 100 100 100 100
15 97 100 79 100 100 100 100 89 100 99 89 23 1 1 5 2 21 100 100 100 27 10 77 100 100 100 100 100 100 100 100 100 100 100 100 100 100 100 100 100 100 100 100
74 5 50 70 79 97 100 100 89 94 100 37 13 0 2 6 72 32 100 100 100 100 44 89 78 100 100 100 100 100 100 97 100 100 100 100 100 100 100 100 100 100 100 100
100 100 5 5 72 100 100 100 100 100 100 89 0 0 0 16 100 100 100 100 100 100 100 100 100 100 100 100 100 100 99 89 100 100 100 100 100 100 100 100 100 100 100 100
56 9 96 5 5 92 99 90 100 100 100 100 13 2 0 0 79 100 100 100 100 100 100 100 100 100 100 100 100 100 100 100 100 100 100 100 100 100 100 100 100 100 100 100
82 75 100 27 27 98 100 44 4 3 100 58 47 0 0 5 0 49 100 100 100 100 100 100 100 97 75 100 100 100 100 100 100 100 99 93 100 100 100 100 100 100 100 100
9 31 100 5 48 100 0 0 0 2 0 28 76 2 0 4 4 0 8 98 100 100 100 100 100 100 100 50 55 71 39 56 51 72 77 100 100 100 100 100 100 100 100 100
79 98 100 91 5 12 5 2 4 5 4 0 0 0 0 0 0 0 0 0 52 100 100 100 100 100 100 100 89 67 50 8 41 97 100 100 100 100 100 100 100 100 100 95
97 99 100 48 100 6 0 0 4 90 58 0 0 0 0 0 0 0 0 1 14 99 100 100 100 100 100 100 100 100 100 100 100 100 100 100 100 100 100 100 100 100 72 85
77 100 100 94 100 37 0 0 61 99 29 0 0 0 0 0 0 0 0 13 5 27 27 100 100 100 100 93 65 100 100 100 100 100 100 100 100 100 100 100 100 100 100 100
1 24 100 100 100 79 0 0 3 0 0 0 2 1 3 85 80 2 4 99 42 11 0 2 98 100 100 100 100 100 100 100 100 100 100 100 100 100 100 100 100 100 100 100
71 1 9 94 42 0 3 0 8 1 3 5 5 73 100 92 0 5 78 97 85 42 5 5 5 43 96 100 100 100 100 100 100 100 100 100 100 100 100 100 100 100 100 100
7 94 34 17 0 10 89 7 71 18 16 100 41 97 100 14 98 100 96 1 5 2 23 11 5 4 82 100 100 100 100 100 100 100 100 100 100 100 100 100 100 100 100 100
98 100 100 22 72 44 48 74 87 46 44 100 100 100 91 48 99 100 100 100 16 6 4 61 80 89 54 58 81 99 100 100 100 100 100 100 100 100 100 100 100 100 100 100
100 100 100 100 100 100 58 94 82 100 70 90 100 100 100 99 100 100 100 100 64 92 100 17 53 95 100 100 100 100 100 100 100 100 100 100 100 100 100 100 100 100 100 100

GFSCGP_prec_cloud_138.txt.gz
Cloud_Cover
90 100 98 100 100 100 100 100 100 100 100 55 63 31 100 100 100 100 91 5 66 100 98 24 95 100 92 84 100 100 100 100 97 41 37 24 64 100 100 100 5 5 5 5
96 100 0 84 100 100 100 100 100 91 100 57 14 28 100 5 100 100 91 84 98 71 87 78 100 100 100 100 87 79 100 100 99 47 19 17 100 100 81 46 6 5 26 80
100 8 7 34 100 100 100 100 93 98 100 77 60 9 100 47 2 98 100 100 100 89 94 9 36 100 100 100 51 77 60 97 100 59 24 71 56 86 96 18 5 34 93 11
69 35 25 96 99 100 100 100 100 100 79 86 17 29 99 91 0 5 89 100 100 100 21 34 8 26 96 54 10 31 26 90 64 100 91 99 100 99 31 13 5 62 100 44
8 67 38 65 6 97 100 100 100 100 98 83 90 100 5 84 0 5 100 100 100 94 9 5 21 94 100 98 100 73 16 91 100 98 93 99 100 100 33 32 13 65 67 52
31 99 87 46 91 100 100 100 100 100 100 100 15 83 4 76 68 66 52 100 100 98 96 76 22 57 94 100 100 100 100 93 25 88 100 100 100 100 100 100 100 92 61 100
5 5 4 11 100 100 100 100 100 100 100 38 41 75 5 100 42 100 100 98 100 99 45 100 100 99 100 100 100 90 88 95 76 95 66 100 100 100 100 100 80 94 88 99
83 92 14 4 11 21 21 100 100 100 100 1 49 16 0 100 100 100 100 64 100 100 100 100 97 100 100 99 72 99 84 99 100 100 66 100 100 100 100 99 100 90 96 90
96 30 0 21 66 22 12 100 100 100 63 23 37 1 0 11 100 100 100 100 100 100 100 100 88 40 18 72 96 99 100 100 80 78 88 91 62 98 100 100 78 59 100 96
29 6 0 4 69 86 8 68 100 100 100 91 3 0 0 0 76 100 100 100 100 100 100 100 100 100 22 26 100 24 56 49 87 99 94 62 23 66 94 70 100 100 100 96
12 42 33 41 9 16 99 100 100 100 100 77 10 0 0 4 5 100 100 100 100 90 100 100 100 100 100 100 100 100 94 76 25 44 29 11 26 9 85 78 100 48 10 39
59 88 97 42 77 5 5 93 90 100 100 95 42 12 0 0 6 88 100 100 100 85 94 100 100 100 100 100 100 100 100 100 100 96 5 5 5 37 23 99 18 31 34 44
56 41 99 25 47 84 98 5 35 100 95 68 36 2 0 0 0 75 100 100 100 100 69 36 100 100 100 100 100 100 100 100 91 54 94 61 44 5 29 59 59 42 66 90
40 36 9 3 26 84 100 100 96 100 100 90 69 1 0 0 0 5 100 100 100 100 100 36 32 100 100 100 100 100 100 100 100 100 100 100 100 100 94 100 100 100 100 100
100 100 53 23 3 89 100 70 97 100 78 100 11 4 0 0 0 51 22 100 100 100 100 94 72 18 100 100 100 100 100 100 100 100 100 100 100 100 100 100 100 100 100 100
54 8 100 99 73 35 60 67 28 43 85 100 81 17 0 0 0 1 99 89 100 100 100 100 100 100 100 100 100 100 100 100 100 100 100 100 100 100 100 100 100 100 100 100
55 77 40 4 80 100 97 4 90 21 5 48 70 15 0 0 0 0 6 99 100 100 100 100 100 100 100 100 100 100 100 98 100 100 100 100 100 100 100 100 100 100 100 100
87 100 92 23 47 81 0 0 0 2 0 21 1 0 0 0 0 1 5 50 100 100 100 100 100 100 100 100 100 100 100 100 99 59 51 78 100 100 100 100 100 100 100 100
100 100 20 4 55 0 0 0 0 0 0 7 1 0 3 0 0 0 0 5 5 36 100 100 100 100 100 100 100 100 100 95 100 100 100 100 100 100 100 100 100 100 100 100
16 97 94 16 30 1 0 0 0 0 0 0 0 0 0 7 28 0 23 38 14 64 31 25 98 100 100 100 100 100 93 28 43 98 100 100 100 100 100 100 100 100 100 100
94 100 100 84 100 22 0 1 4 0 0 0 0 0 0 0 0 0 30 95 5 5 5 5 5 79 100 98 92 58 90 100 95 57 14 13 36 100 100 100 100 100 100 100
1 9 30 80 96 12 2 74 6 26 4 0 2 1 0 0 0 0 0 3 5 5 5 5 5 31 5 13 90 89 9 27 52 100 100 100 100 100 100 100 100 100 100 100
5 3 0 0 0 0 4 8 37 61 65 5 52 5 5 0 0 0 0 0 0 0 4 5 3 2 18 0 0 0 9 89 99 62 86 100 100 100 100 100 100 100 100 100
6 20 5 16 0 7 4 29 92 93 51 48 70 52 17 31 3 0 0 3 5 15 96 95 4 2 6 2 0 0 5 5 5 96 100 100 100 100 100 100 100 100 100 100
38 34 68 13 5 4 5 26 64 66 70 5 5 46 85 83 63 42 5 18 39 80 100 100 100 100 61 32 4 20 9 3 87 100 100 100 100 100 100 100 100 100 100 100
95 94 72 67 56 98 35 100 59 100 100 95 51 78 100 96 100 94 99 100 82 100 100 100 100 100 56 95 99 100 91 71 93 100 100 100 100 100 100 100 100 100 100 100

GFSCGP_prec_cloud_141.txt.gz
Cloud_Cover
100 100 86 100 100 76 100 87 58 7 100 95 79 32 0 100 2 23 100 100 66 76 96 50 91 100 100 58 50 43 7 18 100 100 100 100 70 47 80 100 71 31 15 17
100 100 6 98 98 99 100 51 72 81 100 86 55 10 6 93 4 20 100 100 100 97 96 50 100 72 75 100 100 80 93 78 99 100 100 100 100 100 100 100 34 5 18 100
34 5 92 82 92 100 71 54 85 60 100 97 99 4 3 16 38 13 100 62 100 100 100 42 40 100 100 100 100 100 48 9 24 100 98 100 100 100 99 38 6 22 97 100
99 36 92 88 11 42 98 15 90 94 100 100 100 61 2 39 5 0 100 99 100 100 100 90 23 70 100 100 100 48 100 99 58 97 100 100 100 100 100 89 63 29 51 45
36 100 99 100 5 77 11 91 98 100 100 100 100 100 0 3 5 59 100 100 100 100 100 100 100 92 100 59 76 69 84 100 100 100 100 100 100 100 52 30 48 49 44 77
100 99 99 99 77 95 97 100 100 97 100 100 90 95 2 3 56 100 100 100 100 100 100 100 100 100 100 88 76 100 100 99 90 99 90 78 95 86 25 52 66 61 63 100
62 100 100 67 100 54 37 100 100 100 100 100 44 100 6 14 35 98 100 100 100 100 100 100 100 100 100 96 92 100 82 27 68 96 72 71 100 98 70 31 6 77 64 83
100 100 98 100 75 44 98 100 100 100 82 100 98 78 0 0 100 100 100 100 100 100 100 100 100 100 100 99 86 100 9 5 78 62 100 100 100 97 99 73 79 100 53 75
100 91 100 100 100 100 99 100 66 100 99 100 100 36 0 0 86 100 100 100 100 100 100 100 100 100 100 100 100 100 73 10 13 99 100 93 100 100 100 93 92 100 66 94
100 100 100 100 100 100 100 100 100 100 100 100 96 74 0 0 4 100 100 100 100 100 100 100 100 100 100 100 100 95 100 100 100 78 86 100 100 100 100 58 5 40 78 81
100 100 100 100 100 100 100 100 93 72 100 89 18 0 0 5 2 44 100 100 100 100 100 100 100 100 100 100 100 100 100 100 100 100 100 100 100 93 77 75 95 50 80 60
100 100 100 100 100 100 100 100 100 100 100 97 20 1 0 8 92 96 100 100 100 100 100 100 100 100 100 100 100 100 100 100 100 100 88 100 100 100 100 100 100 99 59 74
68 71 100 100 100 99 100 100 100 100 100 84 99 17 0 12 59 3 100 100 100 100 100 100 100 100 100 100 100 100 100 100 100 100 47 68 63 99 100 100 100 7 94 90
81 12 52 9 87 100 100 100 100 100 100 100 78 4 0 1 6 58 100 100 100 100 100 100 100 100 100 100 100 100 100 100 100 100 99 49 5 75 100 100 100 100 86 43
7 73 20 8 43 54 16 34 77 100 51 100 22 5 0 1 77 6 52 100 100 100 100 100 100 100 94 100 100 100 100 100 100 100 100 97 100 73 100 100 100 100 100 100
68 100 97 64 94 66 46 38 56 47 23 100 100 81 0 0 36 4 12 100 100 100 100 100 100 100 100 100 100 100 100 100 94 99 100 100 100 100 100 100 100 100 100 100
100 100 99 41 89 100 97 0 0 2 6 3 98 4 0 0 0 2 4 66 100 100 100 100 100 100 100 100 100 6 91 97 100 100 86 78 100 100 100 100 100 100 100 100
63 100 100 57 87 78 0 0 0 2 55 100 13 0 0 0 2 0 0 0 65 100 100 100 100 100 100 100 100 84 100 56 5 5 20 74 100 100 100 100 100 100 100 100
99 100 97 86 81 4 0 0 0 0 0 14 4 0 0 13 60 0 0 0 0 53 96 100 100 100 100 100 100 100 100 100 80 6 5 61 100 100 100 100 100 100 100 100
0 5 6 5 28 8 0 0 0 0 0 0 0 0 65 1 0 0 0 0 0 0 7 100 100 100 92 97 99 100 100 100 100 100 100 100 89 100 100 100 100 100 100 100
99 76 62 37 96 2 0 0 0 0 6 0 4 5 5 3 0 1 0 0 0 0 0 5 74 100 98 65 6 69 100 100 100 100 100 100 100 100 100 100 100 100 100 100
14 41 47 100 100 9 0 0 2 26 70 55 5 5 5 5 5 5 2 1 0 0 0 0 0 10 26 19 6 100 90 98 100 100 100 100 100 100 100 100 100 100 100 100
0 0 0 0 0 0 4 5 5 6 41 58 55 5 5 5 5 5 7 5 5 4 0 0 0 0 2 59 5 10 100 100 100 100 100 100 100 100 100 100 100 100 100 100
4 4 4 2 4 3 5 5 5 5 16 92 89 97 20 5 5 85 98 74 5 5 26 37 36 5 0 4 5 5 84 100 100 100 100 100 100 100 100 100 100 100 100 100
31 5 38 5 0 2 3 5 5 3 5 6 6 95 100 99 100 99 96 99 66 69 94 100 100 100 53 16 7 96 73 75 100 100 100 100 100 100 100 100 100 100 100 100
32 42 5 5 47 84 7 3 5 67 33 97 100 43 95 100 100 100 100 100 97 100 94 86 100 100 100 100 100 100 100 72 98 92 100 100 100 100 100 100 100 100 100 100